Theta_e
295 296 295 296 295 295 296 296 296 296 296 294 294 293 293 292 291 293 296 297 298 300 300 299 300 301 299 300 303 297 297 294 296 299 302 305 302 299 297 300 296 298 299 299 300 304 310 295 292 304 312 292 293 295
294 294 295 294 294 294 294 294 294 295 297 296 294 294 293 292 291 291 294 295 295 296 297 297 298 298 298 298 299 295 299 297 299 300 301 301 300 297 299 307 294 299 302 305 302 307 301 294 299 296 291 298 293 295
294 294 294 293 293 292 292 292 292 293 294 296 295 294 293 293 291 291 292 294 295 295 296 296 296 294 294 295 297 300 296 297 297 295 300 300 300 299 303 301 300 295 296 297 299 305 299 298 295 295 291 293 294 293
293 293 292 292 291 291 291 290 291 291 292 294 296 295 294 293 292 291 291 293 293 295 296 297 292 291 292 292 293 295 293 292 292 295 298 300 300 299 301 299 298 298 294 297 299 300 300 300 297 297 294 290 290 291
292 292 291 290 290 290 289 289 289 290 291 292 294 296 294 293 292 291 291 291 291 295 296 297 293 290 289 289 290 291 292 292 293 295 297 299 298 296 297 295 297 294 297 299 304 303 303 302 297 296 295 293 291 290
291 290 290 289 289 289 288 289 289 289 290 290 292 294 294 293 291 291 291 292 292 292 294 296 292 289 286 287 289 290 291 293 295 297 299 298 295 296 303 302 299 297 297 299 300 297 297 297 294 293 294 294 292 290
290 288 288 289 289 288 289 288 288 289 290 291 291 293 294 293 291 291 293 292 291 291 293 295 297 289 287 289 290 291 290 293 294 296 296 297 296 295 299 302 302 299 299 298 297 294 296 296 297 292 291 291 290 288
289 288 289 289 289 288 288 289 290 290 290 291 291 293 293 293 291 290 290 292 292 291 292 294 297 292 288 291 292 291 292 292 293 295 295 294 294 296 299 299 299 300 300 300 296 294 297 290 288 287 286 286 285 286
288 288 288 288 288 288 289 290 291 291 291 291 291 293 292 289 290 289 289 290 290 292 295 296 296 297 288 291 290 290 291 294 291 293 294 293 296 296 297 298 298 298 297 297 291 289 290 290 292 288 285 285 287 288
287 288 287 286 286 289 290 291 291 291 291 291 292 289 291 288 288 288 291 290 291 290 290 291 291 295 291 290 292 291 291 294 296 294 288 291 295 295 296 297 296 297 296 291 292 293 287 287 288 289 287 287 287 288
287 287 286 286 288 289 289 290 291 291 291 289 288 289 286 289 289 292 291 292 291 292 293 293 293 293 289 293 293 292 294 293 295 293 292 296 295 294 293 292 288 285 290 293 293 292 289 290 291 289 288 286 285 285
287 287 287 286 289 289 290 291 291 290 287 287 288 288 288 289 288 290 291 292 292 292 291 292 291 290 291 289 293 290 293 291 296 285 290 295 297 295 290 288 283 279 279 281 280 282 283 282 282 281 281 282 283 284
287 287 287 288 289 288 288 289 289 287 287 286 286 287 288 286 288 288 289 291 293 292 289 289 290 288 287 287 293 291 292 294 283 288 293 296 297 291 287 283 281 277 277 277 277 276 275 275 275 274 277 279 280 279
287 287 287 288 289 289 288 287 288 286 286 287 287 286 288 287 287 288 291 292 289 289 288 288 288 289 290 290 293 295 290 285 291 291 294 299 294 284 281 279 279 281 278 277 277 275 274 273 273 274 273 273 274 277
287 287 287 288 288 289 289 289 287 286 286 286 286 286 286 287 287 289 288 289 288 287 289 289 287 286 289 290 292 287 286 291 295 300 301 295 282 279 280 279 278 278 277 277 276 275 274 272 272 272 274 273 274 275
288 288 287 287 288 287 288 288 287 286 286 286 285 285 284 285 287 287 289 290 289 289 289 288 288 290 289 292 289 292 297 297 302 297 292 283 281 277 277 275 275 274 275 275 275 274 274 273 273 274 274 274 275 276
288 288 288 287 287 288 287 287 287 287 287 286 286 285 287 288 289 289 290 290 289 289 288 289 289 291 289 290 294 295 297 300 301 289 281 278 278 276 274 274 274 274 275 274 274 274 274 274 275 277 277 275 275 274
288 288 288 288 287 287 287 286 287 287 287 286 286 287 284 288 289 289 289 289 289 289 289 288 289 289 289 290 296 295 292 287 282 279 277 275 274 272 273 274 273 273 273 272 272 273 273 275 276 275 275 275 275 275
287 288 287 288 287 286 287 286 286 286 286 283 283 281 284 287 287 288 288 288 288 289 289 289 289 289 289 292 289 286 283 280 279 278 274 271 272 272 272 272 272 272 272 272 272 272 272 270 272 273 274 275 274 273
287 287 288 288 286 286 285 285 283 285 284 285 281 283 286 288 288 287 287 286 286 287 288 288 288 289 289 290 280 278 275 274 275 277 277 274 273 272 273 273 272 272 272 272 271 272 273 272 271 271 271 272 272 271
287 287 287 288 286 285 285 284 284 284 281 284 283 283 286 283 284 285 286 285 286 287 287 289 289 291 275 274 273 272 272 272 274 277 279 276 273 273 272 271 271 272 272 272 272 271 270 270 270 270 270 270 269 268
287 287 287 287 285 282 286 280 283 279 281 281 280 282 285 285 285 285 285 285 286 287 286 281 275 274 274 273 273 271 271 271 272 271 272 272 273 273 273 272 272 271 271 271 271 270 269 269 269 269 269 268 267 267
287 287 286 284 284 283 282 276 282 281 284 283 281 284 284 284 285 283 287 286 282 271 269 269 270 270 270 271 270 271 270 272 273 272 271 271 270 270 270 270 270 270 269 267 268 269 268 268 268 268 268 268 267 266
286 286 286 285 286 283 277 280 277 280 280 282 284 284 284 285 282 284 286 287 275 268 269 270 270 272 271 271 271 271 271 271 271 270 270 270 269 268 267 267 266 267 267 267 267 267 267 267 267 267 267 266 266 265
285 285 285 283 278 279 278 279 278 280 281 281 283 285 284 282 285 285 286 283 269 269 268 267 270 272 273 272 271 270 269 271 271 270 267 267 266 266 266 265 265 266 267 267 267 266 266 266 265 265 265 265 264 264
285 280 282 282 277 280 279 279 279 280 280 280 282 281 280 283 283 285 282 267 265 264 264 263 264 267 271 270 271 270 268 269 269 268 266 268 268 269 269 269 269 266 267 267 267 266 265 265 264 264 263 263 263 263
279 278 274 268 275 275 275 275 275 279 279 280 280 278 280 280 282 278 264 262 262 262 260 261 261 263 265 267 266 266 267 268 268 267 266 267 267 268 269 269 267 265 266 267 266 265 264 263 262 262 261 262 262 262
278 271 277 272 271 270 275 276 278 280 281 273 277 279 282 283 284 267 263 260 259 259 260 261 262 263 265 265 265 264 264 265 265 265 265 265 265 265 266 266 266 266 266 266 266 265 264 263 262 262 261 260 260 261
271 268 273 265 266 270 272 276 278 271 264 271 279 278 275 265 261 260 260 259 259 259 261 263 264 264 264 265 265 265 265 265 267 269 268 267 266 264 264 265 265 265 265 265 265 265 264 263 263 262 262 261 261 261
269 268 269 266 272 276 267 261 263 259 259 260 260 260 261 260 259 259 258 258 259 261 263 263 263 265 265 265 264 265 265 266 266 269 269 268 265 263 264 264 264 263 263 263 262 261 262 262 262 262 261 260 260 260
266 267 266 265 265 262 260 258 258 258 259 259 259 262 264 261 260 259 258 259 259 260 262 263 264 264 265 265 265 265 265 265 266 267 268 267 265 264 265 264 264 264 264 263 263 263 262 262 261 261 261 260 260 260
267 268 269 269 262 259 259 261 261 262 261 261 262 261 260 261 262 260 259 259 259 261 262 263 264 263 264 265 265 265 265 264 263 265 266 265 265 264 265 264 264 264 264 264 263 263 262 262 261 261 260 260 260 260
265 265 264 263 261 261 261 263 264 265 264 264 264 262 262 263 265 260 258 259 260 262 262 262 262 263 263 264 264 263 263 263 264 265 265 265 265 265 265 264 264 264 264 263 263 263 262 262 261 261 260 260 260 260
Wind_Speed
19 21 18 17 13 11 10 11 11 21 18 14 11 9 6 3 3 2 5 6 3 2 3 3 4 4 2 2 3 3 1 2 3 3 2 1 2 0 3 2 5 7 8 5 5 5 7 6 6 5 2 2 5 9
19 20 18 17 14 12 11 9 8 8 20 19 15 12 9 6 2 1 3 4 6 3 3 5 8 12 6 3 2 4 2 2 3 3 2 1 3 3 2 3 5 4 5 3 8 5 1 10 2 2 2 2 5 10
21 18 17 16 15 14 14 14 15 15 13 19 21 17 13 10 7 3 4 5 4 1 5 2 7 9 14 14 12 3 3 3 3 1 1 1 6 3 4 6 4 6 6 4 2 3 11 12 10 9 5 4 4 9
18 18 18 16 15 14 16 16 18 18 18 17 18 22 17 14 10 7 3 2 2 3 4 4 3 6 7 10 13 12 3 3 3 1 3 3 3 3 3 2 3 1 8 5 7 14 11 13 12 12 12 7 6 8
19 19 19 18 18 17 17 19 20 21 22 22 19 22 21 15 11 8 8 9 9 4 3 5 7 5 6 5 8 7 7 3 2 3 4 4 2 2 3 2 6 7 8 6 8 7 3 3 1 5 11 13 13 11
20 19 18 19 20 19 19 20 21 23 22 24 22 17 24 18 13 4 2 3 8 11 2 3 1 1 1 3 6 5 6 2 2 2 3 3 1 2 4 5 8 12 16 19 15 0 4 4 3 4 8 10 11 12
21 19 21 21 20 20 21 23 27 27 26 24 23 19 23 20 20 5 1 5 8 11 2 3 3 2 1 2 2 2 3 2 2 2 4 3 3 4 3 8 16 14 17 15 12 2 11 10 8 5 5 2 5 7
22 21 20 19 17 20 25 27 25 23 23 23 22 20 22 21 16 9 11 11 5 1 2 3 2 1 2 1 2 1 2 2 4 3 1 3 2 3 7 25 18 20 17 15 9 13 11 2 1 2 2 3 5 8
19 18 17 15 17 21 21 23 19 20 20 20 20 15 11 8 7 6 8 6 13 5 3 3 3 1 1 0 2 1 2 3 1 3 3 3 4 9 15 14 14 14 9 5 2 1 3 8 7 5 6 6 6 9
19 17 15 14 17 18 17 19 19 19 21 21 17 5 4 8 16 15 4 2 3 3 3 3 1 0 2 1 1 2 2 3 3 3 2 4 6 22 18 16 13 8 6 6 2 5 4 6 10 11 12 7 9 6
19 17 13 13 10 10 12 19 22 21 21 10 4 2 8 16 5 2 3 5 5 4 5 4 6 8 6 5 4 3 2 2 3 2 3 4 5 5 2 5 4 7 8 8 8 2 2 1 2 5 7 9 7 6
18 17 12 10 7 7 8 26 25 20 9 10 10 15 7 2 2 4 4 4 5 5 2 2 3 3 2 2 4 3 3 2 6 1 3 4 6 5 2 2 2 4 4 4 3 5 3 4 2 2 3 2 4 11
18 17 10 12 10 10 22 28 25 34 40 17 4 3 2 1 4 6 7 4 4 2 2 1 1 0 1 4 3 4 5 6 0 3 5 6 7 2 2 2 2 3 2 2 3 2 4 5 6 4 5 7 9 7
18 18 11 7 11 17 22 28 23 17 5 2 4 6 4 4 5 4 2 4 4 3 1 2 2 2 1 3 3 5 1 2 4 4 7 4 3 4 4 3 3 5 5 4 5 4 4 5 5 6 8 10 8 8
18 18 17 13 13 15 18 22 17 9 3 2 2 3 4 1 1 4 3 4 3 2 2 1 1 1 3 4 5 3 1 6 7 8 9 2 4 4 4 4 5 7 6 5 4 5 5 5 4 5 7 6 6 8
20 16 17 17 16 15 15 17 9 3 2 2 2 2 2 3 3 2 3 3 4 2 2 1 1 2 5 4 4 10 6 7 5 4 2 3 3 3 3 4 4 6 6 4 4 5 5 4 3 3 8 9 4 1
22 8 18 20 18 18 17 9 3 2 3 3 3 2 3 1 3 4 4 3 6 2 1 2 4 6 4 4 6 6 8 13 12 2 2 3 4 4 4 3 4 4 4 5 7 8 7 5 7 9 8 9 10 11
6 17 22 24 20 17 5 5 3 4 6 3 3 6 3 3 3 3 4 3 4 3 4 5 3 5 5 7 8 4 7 11 6 4 3 3 3 2 3 3 4 4 4 7 9 9 10 9 7 6 8 8 10 10
15 17 23 27 23 8 3 4 3 4 4 1 2 1 2 2 4 5 4 5 9 5 3 3 6 5 9 6 5 6 4 2 6 9 3 4 4 1 1 3 6 4 7 9 11 9 9 11 9 7 7 8 9 9
14 14 20 28 26 4 3 2 2 2 4 3 1 3 3 3 4 4 7 4 4 3 6 7 12 12 11 10 4 4 5 4 6 7 6 3 2 1 1 2 2 2 6 9 10 8 7 8 11 12 11 11 10 10
16 13 19 25 9 2 2 3 3 2 2 3 2 4 3 2 3 5 6 5 6 5 9 9 11 12 2 4 7 7 6 7 7 5 3 3 3 2 2 3 3 3 4 6 4 7 8 8 7 9 10 12 13 15
10 21 6 8 2 2 2 3 1 2 2 1 2 2 2 2 4 4 3 5 5 8 7 2 2 2 3 5 3 6 8 9 8 4 2 8 4 3 2 3 3 3 6 7 6 6 7 7 8 10 11 14 17 19
18 14 5 3 2 3 2 3 3 4 4 3 3 3 3 3 4 3 3 4 1 0 1 0 2 4 6 7 5 6 6 2 2 3 6 6 6 6 6 6 3 4 5 7 6 7 8 8 10 11 12 13 15 17
14 7 5 6 5 4 2 3 1 3 2 3 3 4 4 4 3 4 4 4 2 2 2 3 2 3 4 5 4 2 1 4 5 6 7 8 4 6 7 7 9 9 9 8 9 10 11 10 11 14 14 14 15 16
6 5 4 4 2 4 4 4 4 3 4 4 4 4 3 3 3 4 6 4 3 2 1 3 4 4 5 2 1 2 1 7 6 4 6 9 9 8 8 10 9 9 8 10 11 13 12 12 13 15 16 16 17 17
6 4 8 9 3 6 7 6 6 7 3 5 6 2 1 2 3 6 1 2 1 1 1 2 2 3 1 3 2 1 1 5 11 7 5 5 4 5 4 4 3 6 9 11 12 13 13 13 17 19 19 18 17 19
6 6 3 1 1 4 2 1 1 3 5 7 3 4 3 3 6 2 1 0 2 2 3 4 5 3 4 3 2 2 3 4 5 11 12 10 8 6 7 7 6 7 9 11 13 14 16 18 19 20 21 22 21 19
3 5 8 6 2 1 4 3 5 7 5 2 3 4 6 7 3 2 2 4 4 6 7 7 6 5 2 2 4 7 11 16 19 20 21 19 15 16 16 18 16 14 14 14 17 21 23 24 25 24 25 25 24 24
3 3 4 3 2 3 5 5 5 0 2 2 4 4 3 0 1 2 2 3 2 4 6 4 2 5 8 8 7 10 14 11 5 4 6 5 3 8 14 18 18 18 20 22 22 23 25 28 29 30 29 28 27 26
4 3 4 3 6 6 2 0 0 2 1 1 1 1 2 2 3 6 7 6 6 6 5 5 4 5 7 9 7 6 4 1 1 2 3 4 6 16 19 22 22 22 24 27 28 27 29 30 30 30 29 28 27 27
2 2 4 2 3 1 1 2 2 1 1 1 0 2 1 2 4 7 7 6 6 4 4 6 5 5 7 9 5 3 2 3 3 5 10 21 22 20 20 21 22 23 26 28 29 29 29 29 28 28 28 27 25 25
1 2 4 3 1 1 1 1 2 2 2 1 2 1 2 2 3 2 5 10 8 7 7 7 7 5 7 7 5 3 2 8 12 19 24 25 23 22 22 23 24 25 27 28 29 29 29 30 30 29 27 25 23 22
2 3 3 3 2 1 2 1 1 2 3 3 4 4 3 2 4 1 5 9 7 5 8 9 8 10 9 9 11 15 15 16 17 20 22 22 23 24 25 25 25 27 28 29 28 28 28 29 28 26 24 23 21 19
Wind_Direction
242 230 228 218 229 238 240 248 264 230 234 238 240 243 244 268 341 325 283 329 278 250 286 232 202 188 211 185 258 132 200 180 188 234 249 189 233 109 288 161 187 186 167 193 186 228 278 140 125 197 203 132 155 172
234 228 217 215 226 232 236 247 264 280 238 229 235 235 235 232 241 253 253 336 342 243 263 282 256 250 245 208 243 183 316 164 229 240 232 242 217 212 238 275 210 241 226 197 214 226 137 199 302 292 329 165 182 177
220 212 221 221 223 232 244 252 256 264 276 230 230 231 228 225 217 217 262 305 332 296 284 239 235 244 247 233 219 226 207 200 211 2 327 298 240 180 221 231 234 222 199 243 323 232 244 230 245 239 214 242 182 192
214 216 218 218 227 238 243 251 255 256 258 260 249 229 223 218 218 220 229 203 228 298 275 271 279 270 253 234 221 219 138 122 92 205 235 240 246 194 256 301 242 7 162 223 257 277 272 247 225 236 215 210 236 202
220 216 219 226 235 236 243 252 255 258 252 251 255 232 219 212 214 230 249 247 233 239 286 302 292 252 235 221 222 216 179 155 174 201 223 233 246 206 221 286 242 181 200 205 246 232 240 291 188 228 209 212 207 188
213 217 224 234 232 238 246 249 259 260 259 244 242 255 220 201 192 202 295 231 230 209 285 277 167 93 20 211 224 216 209 208 220 237 230 230 58 231 264 252 241 218 224 230 246 172 251 288 260 204 221 231 211 200
214 222 229 229 227 241 252 263 265 259 247 242 230 240 214 195 188 186 159 154 136 162 243 271 252 60 169 173 181 193 195 229 256 247 233 248 179 196 259 255 243 221 229 238 245 104 279 239 255 185 190 235 183 191
214 223 227 235 241 250 267 268 256 246 234 228 220 220 216 195 192 229 225 211 185 209 268 261 253 280 177 180 210 174 203 185 215 255 231 223 157 220 250 242 257 249 252 259 232 203 233 106 59 178 137 138 167 205
215 220 224 229 255 270 263 256 247 230 215 210 205 204 186 178 163 178 152 181 206 228 279 223 238 324 209 49 3 207 266 242 137 241 220 198 198 228 235 256 242 246 219 230 116 59 242 235 242 203 192 202 212 217
205 208 218 251 279 271 269 243 221 211 196 187 172 143 172 164 130 128 108 121 181 216 226 256 247 309 211 166 236 280 211 250 253 209 117 227 254 255 260 260 261 249 217 158 197 249 200 248 230 230 220 215 215 214
206 205 227 275 243 260 266 209 196 184 169 168 138 106 123 136 123 110 191 195 191 224 195 216 229 227 190 180 216 214 240 240 261 145 234 238 263 250 216 267 345 319 281 245 239 220 210 230 238 230 233 224 216 204
203 203 219 257 219 308 246 174 168 157 126 135 129 119 124 117 77 182 192 202 207 218 72 334 350 322 134 244 172 179 245 198 246 118 247 253 256 268 266 292 343 332 325 296 320 291 291 283 313 308 299 263 228 230
198 193 213 183 172 115 106 131 140 128 121 128 74 99 190 183 174 188 189 195 180 122 81 342 310 231 282 234 222 175 233 231 112 222 237 242 269 206 271 323 300 295 317 344 315 284 289 283 285 241 275 277 271 272
192 188 188 182 167 155 131 130 134 139 109 114 159 143 195 169 213 196 193 109 98 113 105 171 198 211 209 258 202 212 162 242 238 240 235 247 11 344 344 350 328 315 334 343 318 326 313 294 290 293 271 274 277 262
184 186 187 183 163 150 152 154 150 145 94 91 105 145 192 151 107 140 107 122 149 173 360 105 187 210 219 247 231 101 186 242 225 249 244 305 352 339 337 345 337 318 330 340 336 333 321 315 318 315 319 301 269 247
187 185 192 186 173 164 160 158 141 58 64 113 108 151 143 154 177 196 185 147 166 141 113 91 289 245 248 220 227 211 219 239 239 232 335 334 328 329 338 337 342 319 317 336 352 343 316 338 2 31 43 40 24 5
180 188 187 183 180 173 167 132 116 125 173 166 226 223 208 204 179 191 175 188 170 147 151 212 242 233 298 248 228 198 233 242 269 350 337 350 330 351 347 324 357 338 352 14 20 12 9 31 55 64 58 42 54 69
166 179 177 179 176 160 148 167 152 174 201 195 193 210 202 213 183 190 210 190 167 207 166 224 234 234 226 262 281 345 350 341 337 332 333 329 337 360 334 356 356 19 20 38 39 29 27 40 56 60 68 75 70 61
181 180 179 175 164 139 142 163 186 209 211 202 222 190 195 213 235 248 227 203 212 217 194 206 231 225 229 242 264 289 313 347 301 315 306 296 304 307 38 69 46 20 59 50 47 41 39 41 42 39 53 72 73 53
181 174 174 169 164 121 138 153 163 208 194 202 172 174 201 210 215 215 232 210 188 191 218 231 238 242 252 272 218 267 282 279 276 286 280 282 292 256 71 55 85 74 70 67 54 40 44 52 46 51 57 65 75 63
172 175 171 164 173 110 146 154 181 229 137 203 158 172 211 180 219 223 236 175 198 217 236 234 247 251 86 272 258 255 263 249 241 238 289 234 218 196 120 110 97 69 74 76 75 65 60 54 48 56 66 66 69 70
167 164 126 177 108 123 189 180 167 130 179 145 165 212 233 221 233 226 173 194 231 234 237 224 235 257 268 262 249 237 256 256 241 228 181 148 168 167 153 131 115 103 88 73 72 83 72 58 66 72 72 70 77 71
163 159 127 111 123 187 145 151 173 192 193 197 151 207 228 219 211 129 232 215 276 353 295 176 257 273 265 282 272 262 250 258 241 183 149 128 114 107 112 91 89 128 103 70 78 85 83 75 73 78 75 72 72 67
165 149 158 178 182 164 134 167 177 202 169 187 197 234 242 216 139 217 242 238 128 128 216 261 254 247 253 252 227 220 6 179 162 137 123 129 119 88 90 87 85 86 100 113 104 94 86 79 80 79 79 77 72 71
131 172 175 164 114 122 162 164 182 186 228 167 200 251 243 174 214 230 238 212 149 142 43 321 272 253 261 259 198 132 199 174 167 150 86 114 116 111 93 87 87 86 102 108 95 95 88 89 87 86 81 79 78 73
174 161 180 181 147 171 183 168 197 203 166 182 223 254 214 190 243 255 238 17 22 357 38 346 325 305 264 351 42 58 352 156 136 109 86 106 126 145 138 132 117 72 83 99 107 103 99 97 92 86 80 78 82 86
150 188 185 342 132 118 125 92 84 164 180 206 197 173 155 198 242 261 359 267 281 286 273 264 265 278 309 5 76 69 89 117 117 119 119 110 110 123 123 111 103 97 107 113 115 118 115 107 101 99 96 96 93 94
131 172 170 175 158 118 144 157 170 195 202 191 127 163 196 203 244 165 182 159 252 293 296 286 261 232 217 164 128 124 107 116 114 111 105 93 93 97 102 105 104 115 118 121 125 126 122 117 113 110 105 100 99 100
121 163 133 119 127 186 205 188 204 89 15 199 161 200 234 140 131 213 220 188 241 274 282 255 194 145 119 110 118 123 127 131 151 150 110 117 115 79 106 111 115 117 118 117 117 118 120 119 116 112 110 107 107 105
151 184 104 102 168 200 127 186 65 81 330 16 64 28 292 258 232 223 227 229 201 196 225 241 194 181 146 134 142 124 121 131 137 148 143 139 138 136 129 125 124 122 119 117 116 117 119 117 114 111 109 107 106 102
115 92 85 64 170 147 112 114 100 148 223 266 210 249 272 303 248 232 218 212 210 215 205 197 186 159 149 151 152 120 68 48 113 155 156 144 140 136 135 136 136 136 134 131 128 126 124 121 118 115 110 104 100 98
83 100 135 173 134 103 194 168 147 180 164 205 261 289 333 334 280 196 215 193 184 193 196 188 174 153 157 150 144 170 219 149 134 135 140 141 138 136 137 136 138 138 135 131 130 130 127 122 116 111 108 105 102 98
83 74 82 101 111 210 218 162 203 253 210 212 188 190 210 231 256 112 178 193 195 188 176 166 150 140 141 147 139 131 130 126 130 139 143 141 138 138 138 138 139 138 136 132 130 128 124 120 115 114 111 108 103 100